星链-2011 (STARLINK-2011 )

导读 | 星芒AI

STARLINK-2011 是 SpaceX Starlink 项目中的一颗低轨通信卫星,于2011年发射,旨在为全球提供高速互联网服务。该卫星运行在近地轨道,具备先进的相控阵天线和激光通信技术,支持高效数据传输。作为 Starlink 卫星群的一部分,它有助于构建覆盖全球的宽带网络,特别是在偏远和网络基础设施薄弱的地区。该卫星系统由数千颗卫星组成,致力于实现低延迟、高带宽的全球互联网接入。

基本信息
目录编号:
47350
目录名称:
STARLINK-2011
国际标识:
2021-005B
轨道中心:
EARTH
卫星名称:
星链-2011
卫星全名:
星链-2011 (STARLINK-2011 )
卫星状态:
已陨落 最后检测时间 2024-05-20
发射日期:
2021-01-20 UTC
国别 :
美国 (US)
星等 :
--
轨道信息
数据来源 国际轨道数据
星历时间: 2024-05-21T01:34:56+0800
轨道信息已过期530天
半长轴: 6562.56km
偏心率: 0.0002662
轨道倾角: 53.042°
近地点辐角 320.283°
升交点赤经 105.139°
平近点角 174.116°
近地点: 182.678km
远地点: 186.172km
周期: 88.180分钟
每日圈数: 16.330252
详细信息
固有亮度:
5
最大亮度:
2.5
卫星平台:
Starlink V1.0
覆盖范围:
全球
运营商:
太空探索技术公司
运营商所在国:
美国
制造商(研发单位):
太空探索技术公司
制造商所在国:
美国
使用方式:
暂无
卫星简介
星链(Starlink)计划是由太空探索技术公司(SpaceX)提出的一个巨型低轨卫星互联网星座项目,计划在2019年至2024年间在太空搭建由约1.2万颗卫星组成的“星链”网络,其中1584颗将部署在地球上空550千米处的近地轨道,并从2020年开始工作。该卫星已陨落。